Other Public Products
Issued by NWS Grand Forks, ND

Home | Current Version | Previous Version | Graphics & Text | Print | Product List | Glossary On
Versions: 1 2 3 4 5 6 7 8 9 10 11 12 13 14 15 16 17 18 19 20 21 22 23 24 25 26 27 28 29 30 31 32 33 34 35 36 37 38 39 40 41 42 43 44 45 46 47 48 49 50
000
FPUS83 KFGF 241831
OPUFGF
PRAIRIE TO PINES WEATHER ROUNDUP
NATIONAL WEATHER SERVICE EASTERN NORTH DAKOTA/GRAND FORKS ND
100 PM CDT FRI APR 24 2015

 **SATELLITE DATA USED TO AUGMENT SKY COVER AT AUTOMATED STATIONS**
 *****  WEATHER ACROSS EASTERN NORTH DAKOTA  *****

CITY           SKY/WX    TMP DP  RH WIND       PRES   REMARKS
GRAND FORKS    CLOUDY    51  37  58 SE16G23   29.77S
6HR MIN TEMP:  40; 6HR MAX TEMP:  51;

GRAND FORKS AF CLOUDY    50  37  61 SE14      29.76S
GRAND CITY NWS   N/A     50 N/A N/A SE12        N/A
BUXTON           N/A     51  40  68 CALM        N/A
DEVILS LAKE    SUNNY     52  37  58 SE15      29.70F
6HR MIN TEMP:  34; 6HR MAX TEMP:  52;

FARGO          CLOUDY    52  40  63 SE21G28   29.72F
6HR MIN TEMP:  42; 6HR MAX TEMP:  52; 6HR PCP:  0.03;

WAHPETON ARPT  CLOUDY    50  39  66 SE21G26   29.72S
$$

 *****  WEATHER ACROSS CENTRAL AND WESTERN NORTH DAKOTA  *****

CITY           SKY/WX    TMP DP  RH WIND       PRES   REMARKS
JAMESTOWN      SUNNY     58  40  51 E13       29.65F
6HR MIN TEMP:  37; 6HR MAX TEMP:  58;

BISMARCK       SUNNY     60  36  40 NE8       29.65F
6HR MIN TEMP:  33; 6HR MAX TEMP:  60;

MINOT          SUNNY     54  31  41 NE9       29.68F
6HR MIN TEMP:  30; 6HR MAX TEMP:  54;

MINOT AFB      SUNNY     53  33  46 E8        29.67F
6HR MIN TEMP:  29; 6HR MAX TEMP:  53;

GARRISON         N/A     55  37  50 E9        29.65F
6HR MIN TEMP:  33; 6HR MAX TEMP:  56;

WILLISTON      SUNNY     59  31  34 E10       29.65F
6HR MIN TEMP:  30; 6HR MAX TEMP:  59;

DICKINSON      SUNNY     60  34  37 NE8       29.62F
6HR MIN TEMP:  26; 6HR MAX TEMP:  60;

HETTINGER      SUNNY     63  36  36 NE9       29.63F
6HR MIN TEMP:  26; 6HR MAX TEMP:  63;

$$

 *****  OTHER OBSERVATIONS NORTHEAST NORTH DAKOTA  *****

CITY           SKY/WX    TMP DP  RH WIND       PRES   REMARKS
WALHALLA       FAIR      52  34  50 SE16      29.77F
LANGDON        FAIR      55  34  44 E14G23    29.74F
CAVALIER       CLOUDY    52  34  50 SE13G20   29.78S
GRAFTON          N/A     48  36  61 SE14      29.79F
CANDO          FAIR      55  36  47 SE13G18   29.72F
FORT TOTTEN      N/A     55  37  51 SE7       29.95S
ROLLA          FAIR      52  34  50 SE15      29.72F
RUGBY          NOT AVBL
 ***** THE ABOVE OBSERVATIONS ARE NON NWS ARE NOT QUALITY
        CONTROLLED AND MAY MIS-REPORT RAIN FOR SNOW...
$$

 *****  OTHER OBSERVATIONS SOUTHEAST NORTH DAKOTA *****

CITY           SKY/WX    TMP DP  RH WIND       PRES   REMARKS
COOPERSTOWN    NOT AVBL
VALLEY CITY    MOCLDY    54  41  62 E15       29.68F
OAKES            N/A     57  45  62 E17G23    29.64F
GWINNER        CLEAR     55  43  62 SE20      29.67F
SHEYENNE NWR     N/A     54  40  59 SE16      29.95
BUFFALO        NOT AVBL
WYNDMERE       NOT AVBL
 ***** THE ABOVE OBSERVATIONS ARE NON NWS ARE NOT QUALITY
       CONTROLLED AND MAY MIS-REPORT RAIN FOR SNOW...
$$

  *****  WEATHER ACROSS NORTHERN MINNESOTA  *****

CITY           SKY/WX    TMP DP  RH WIND       PRES   REMARKS
FLAG ISLAND    CLOUDY    41  21  45 E9G18     29.89S
WARROAD        CLOUDY    41  30  65 E8        29.87S
ROSEAU         CLOUDY    46  30  53 SE12      29.85S
HALLOCK        CLOUDY    48  30  49 SE13      29.80S
THF RVR FALLS  CLOUDY    46  32  57 SE17      29.80S
6HR MIN TEMP:  39; 6HR MAX TEMP:  46;

HALSTAD          N/A     51  37  60 SE16        N/A
FOSSTON        CLOUDY    45  34  65 SE12G20   29.78F
BAUDETTE       CLOUDY    41  23  48 SE14      29.88S
6HR MIN TEMP:  34; 6HR MAX TEMP:  42;

WASKISH        CLOUDY    43  28  56 E12       29.87S
CROOKSTON      PTSUNNY   48  36  61 SE18G24   29.78S
$$
  *****  WEATHER ACROSS CENTRAL AND WEST MINNESOTA  *****

CITY           SKY/WX    TMP DP  RH WIND       PRES   REMARKS
BEMIDJI        CLOUDY    40  32  74 SE15G21   29.84S
PARK RAPIDS    CLOUDY    45  37  73 E12       29.80F
6HR MIN TEMP:  35; 6HR MAX TEMP:  45; 6HR PCP:  0.08;

WADENA         CLOUDY    46  37  71 SE21G26   29.77F
DETROIT LAKES  PTSUNNY   46  37  71 SE21      29.76S
MOORHEAD       CLOUDY    48  39  71 SE18      29.73F
FERGUS FALLS   PTSUNNY   46  36  66 SE18      29.75F
ELBOW LAKE     CLOUDY    47  41  80 SE16G25   29.73S
6HR MIN TEMP:  37; 6HR MAX TEMP:  46; 6HR PCP:  0.14;

MORRIS MN      PTSUNNY   52  45  76 SE25G33   29.70F
STAPLES        CLOUDY    45  32  61 SE12G17   29.81F
WHEATON        PTSUNNY   48  43  81 E24       29.70F
$$
  *****  WEATHER ELSEWHERE ACROSS MINNESOTA  *****

CITY           SKY/WX    TMP DP  RH WIND       PRES   REMARKS
DULUTH         CLOUDY    37  29  72 E13       29.96F
6HR MIN TEMP:  36; 6HR MAX TEMP:  38; 6HR PCP: TRACE;

INTRNTL FALLS  CLOUDY    39  21  48 E8        29.93F
6HR MIN TEMP:  31; 6HR MAX TEMP:  39;

ELY            PTSUNNY   45  12  26 E10       29.95S
CLOQUET        CLOUDY    37  34  87 E8        29.94S
BRAINERD       CLOUDY    44  29  55 SE12      29.85F
6HR MIN TEMP:  36; 6HR MAX TEMP:  44; 6HR PCP:  0.12;

HIBBING        CLOUDY    41  30  65 SE17      29.93F
6HR MIN TEMP:  34; 6HR MAX TEMP:  41;

ALEXANDRIA     LGT RAIN  42  39  89 SE18G25   29.77F
6HR MIN TEMP:  36; 6HR MAX TEMP:  42; 6HR PCP:  0.54;

SAINT CLOUD    LGT RAIN  40  37  89 E7        29.86S FOG
6HR MIN TEMP:  40; 6HR MAX TEMP:  45; 6HR PCP:  0.32;

MINNEAPOLIS    LGT RAIN  49  36  61 SE12      29.88R
6HR MIN TEMP:  44; 6HR MAX TEMP:  52; 6HR PCP:  0.01;

$$

  *****  WEATHER ACROSS SOUTH DAKOTA  *****

CITY           SKY/WX    TMP DP  RH WIND       PRES   REMARKS
SIOUX FALLS    CLOUDY    61  48  62 S15       29.62F
6HR MIN TEMP:  49; 6HR MAX TEMP:  62;

BROOKINGS      CLOUDY    63  46  55 S13G20    29.63F
WATERTOWN      MOSUNNY   64  44  48 S14       29.62F
6HR MIN TEMP:  49; 6HR MAX TEMP:  65;

HURON          MOSUNNY   69  47  45 S10G17    29.55F
6HR MIN TEMP:  52; 6HR MAX TEMP:  70;

SISSETON         N/A     53  46  77 S20       29.66F
ABERDEEN       PTSUNNY   67  45  45 S9        29.58F
6HR MIN TEMP:  45; 6HR MAX TEMP:  67;

MITCHELL       MOSUNNY   68  48  48 S13       29.57F
PIERRE         MOSUNNY   68  46  45 N7        29.54S
6HR MIN TEMP:  49; 6HR MAX TEMP:  69;

MOBRIDGE       MOSUNNY   63  42  46 N13       29.57F
RAPID CITY     SUNNY     65  41  41 NE13      29.60F
6HR MIN TEMP:  44; 6HR MAX TEMP:  66;

$$

  *****  SOME WEATHER IN NEARBY STATES *****

CITY           SKY/WX    TMP DP  RH WIND       PRES   REMARKS
GLASGOW MT     MOSUNNY   59  36  42 S7        29.60S
6HR MIN TEMP:  33; 6HR MAX TEMP:  59;

GREAT FALLS MT LGT RAIN  51  37  58 VRB6      29.65S
6HR MIN TEMP:  45; 6HR MAX TEMP:  52; 6HR PCP: TRACE;

CHEYENNE WY    MOSUNNY   60  26  27 W14       29.70F
6HR MIN TEMP:  38; 6HR MAX TEMP:  61;

SCOTTSBLUFF NE SUNNY     68  37  32 W7        29.63F
6HR MIN TEMP:  39; 6HR MAX TEMP:  68;

OMAHA NE       PTSUNNY   64  51  62 S12       29.68F
6HR MIN TEMP:  56; 6HR MAX TEMP:  64; 6HR PCP: TRACE;

DES MOINES IA  LGT RAIN  54  48  80 CALM      29.77F
6HR MIN TEMP:  53; 6HR MAX TEMP:  58; 6HR PCP:  0.16;

DAVENPORT IA   NOT AVBL
CHICAGO IL     CLOUDY    56  15  20 VRB5      30.00F
6HR MIN TEMP:  35; 6HR MAX TEMP:  57;

EAU CLAIRE WI  CLOUDY    57  19  22 SE13      29.91F
6HR MIN TEMP:  31; 6HR MAX TEMP:  58;

LA CROSSE WI   CLOUDY    56  20  24 S16       29.93F
6HR MIN TEMP:  34; 6HR MAX TEMP:  57;

$$

  *****  SOME NATIONAL WEATHER *****

CITY           SKY/WX    TMP DP  RH WIND       PRES   REMARKS
LA GUARDIA NY  PTSUNNY   46  20  35 NW17G28   29.84F


USA.gov is the U.S. government's official web portal to all federal, state and local government web resources and services.